[[[{"header":{"parameterUnit":"kt","parameterCategory":2,"dx":1,"dy":1,"la1":30.253999710083008,"la2":30.299108505249023,"lo1":-89.0895004272461,"lo2":-89.04439544677734,"nx":28,"ny":28,"refTime":"2022-10-15T21:00:00:Z","depth":0,"parameterNumber":1,"parameterNumberName":"U-component_of_WINDS"},"data":[-2.8854,-2.8947,-2.8949,-2.9058,-2.9078,-2.9153,-2.9181,-2.9217,-2.9247,-2.9338,-2.9391,-2.9404,-2.9436,-2.9501,-2.956,-2.9564,-2.9589,-2.962,-2.962,-2.9475,-2.9455,-2.9435,-2.9412,-2.9626,-2.9626,-2.977,-2.9771,-2.9772,-2.8748,-2.8769,-2.8827,-2.8884,-2.8934,-2.8905,-2.8949,-2.8993,-2.9061,-2.9099,-2.9151,-2.9232,-2.9296,-2.9318,-2.9381,-2.9426,-2.9416,-2.9443,-2.9438,-2.9444,-2.9289,-2.9264,-2.945,-2.945,-2.945,-2.945,-2.945,-2.945,-2.8557,-2.8613,-2.8648,-2.8711,-2.8741,-2.878,-2.8834,-2.8847,-2.8905,-2.8969,-2.8961,-2.9039,-2.9077,-2.9154,-2.9181,-2.9242,-2.9213,-2.9243,-2.925,-2.9258,-2.9265,-2.9056,-2.9254,-2.9253,-2.9253,-2.9252,-2.9252,0,-2.8417,-2.8415,-2.8469,-2.8526,-2.8571,-2.8615,-2.8656,-2.869,-2.8686,-2.8734,-2.8803,-2.8844,-2.8925,-2.8991,-2.9051,-2.9072,-2.9046,-2.9044,-2.9065,-2.9068,-2.9064,-2.9066,-2.8812,-2.9038,-2.9036,-2.9035,-2.9034,-2.9033,-2.8223,-2.8288,-2.8325,-2.8364,-2.8386,-2.8449,-2.8486,-2.8477,-2.8518,-2.8568,-2.8619,-2.8685,-2.8737,-2.885,-2.8865,-2.8926,-2.8913,-2.8999,-2.8922,-2.8924,-2.8913,-2.8908,-2.8915,-2.9013,-2.9016,-2.9018,-2.902,0,-2.8113,-2.8114,-2.8216,-2.8246,-2.8256,-2.8325,-2.8351,-2.8408,-2.8414,-2.8493,-2.8511,-2.8521,-2.859,-2.8591,-2.8671,-2.8669,-2.8786,-2.8774,-2.8773,-2.8769,-2.8846,-2.8838,-2.9094,-2.9127,-2.8907,-2.8909,-2.891,0,-2.7947,-2.8033,-2.8029,-2.8088,-2.8185,-2.8171,-2.8267,-2.8282,-2.8313,-2.8374,-2.8344,-2.8403,-2.8395,-2.8455,-2.8453,-2.8549,-2.8564,-2.8569,-2.8567,-2.857,-2.8569,-2.859,-2.8579,-2.8561,-2.856,-2.8559,-2.8558,0,-2.7773,-2.7872,-2.7968,-2.7991,-2.8031,-2.8077,-2.8096,-2.813,-2.8167,-2.8216,-2.824,-2.8299,-2.8331,-2.8378,-2.8373,-2.8321,-2.8491,-2.8418,-2.8495,-2.8495,-2.8531,-2.8528,-2.8757,-2.8556,-2.8556,-2.8555,-2.8555,0,-2.7637,-2.7685,-2.7824,-2.7856,-2.7882,-2.7946,-2.8001,-2.8055,-2.8094,-2.8096,-2.8134,-2.8113,-2.8197,-2.8125,-2.824,-2.8173,-2.8207,-2.8218,-2.8224,-2.8229,-2.8147,-2.8274,-2.8493,-2.8515,-2.8238,-2.8235,-2.8233,0,-2.7438,-2.7578,-2.7566,-2.7699,-2.7762,-2.7722,-2.7793,-2.7827,-2.7835,-2.7891,-2.7901,-2.7966,-2.7912,-2.7932,-2.799,-2.8002,-2.809,-2.7991,-2.8074,-2.8077,-2.8062,-2.8264,-2.8295,-2.8446,-2.8199,-2.8203,-2.8205,0,-2.7282,-2.7327,-2.7352,-2.7376,-2.7417,-2.7471,-2.7553,-2.7613,-2.7651,-2.7693,-2.7761,-2.7854,-2.7816,-2.785,-2.7839,-2.7899,-2.803,-2.785,-2.7851,-2.7882,-2.8182,-2.8211,-2.8237,-2.801,-2.8014,-2.8017,-2.8178,0,-2.7075,-2.7144,-2.721,-2.7264,-2.7306,-2.7389,-2.7385,-2.743,-2.7413,-2.7418,-2.752,-2.7548,-2.761,-2.7639,-2.7624,-2.7761,-2.7738,-2.7697,-2.7624,-2.7758,-2.7811,-2.7832,-2.7546,-2.7544,-2.7542,-2.7541,0,0,-2.6882,-2.6981,-2.6964,-2.7041,-2.7074,-2.7029,-2.7117,-2.7145,-2.7202,-2.7227,-2.7187,-2.732,-2.7345,-2.7468,-2.7509,-2.7535,-2.7559,-2.7512,-2.7695,-2.7712,-2.7728,-2.7785,-2.7807,-2.7537,-2.7537,-2.7536,-2.7536,0,-2.6804,-2.6828,-2.6915,-2.6942,-2.6981,-2.6982,-2.7003,-2.7034,-2.7041,-2.7139,-2.7101,-2.7161,-2.7268,-2.7299,-2.7329,-2.7498,-2.7465,-2.7518,-2.7609,-2.7677,-2.7696,-2.7714,-2.7773,-2.7795,-2.7531,-2.7531,-2.7532,0,-2.6649,-2.6671,-2.6712,-2.6784,-2.681,-2.6877,-2.68,-2.6874,-2.6924,-2.6871,-2.6969,-2.6984,-2.7025,-2.7142,-2.7194,-2.7159,-2.738,-2.731,-2.7321,-2.7326,-2.7392,-2.7416,-2.7437,-2.716,-2.7158,-2.7157,0,0,-2.6582,-2.6646,-2.6665,-2.6767,-2.6786,-2.6787,-2.6822,-2.6809,-2.6844,-2.6859,-2.6877,-2.6915,-2.6976,-2.7018,-2.7076,-2.7204,-2.7212,-2.7264,-2.7282,-2.7296,-2.7309,-2.7378,-2.7402,-2.7152,-2.7152,-2.7152,0,0,-2.655,-2.6575,-2.6551,-2.6669,-2.6704,-2.673,-2.6793,-2.6765,-2.6816,-2.6806,-2.6787,-2.6797,-2.6906,-2.6922,-2.6857,-2.705,-2.6978,-2.6994,-2.7034,-2.7056,-2.7073,-2.7066,-2.6782,0,0,0,0,0,-2.6467,-2.6572,-2.655,-2.6569,-2.666,-2.6742,-2.6754,-2.674,-2.6689,-2.674,-2.675,-2.6713,-2.6883,-2.6825,-2.6845,-2.6917,-2.7089,-2.7101,-2.7111,-2.7194,-2.7217,-2.7236,0,0,0,0,0,0,-2.6474,-2.6497,-2.6547,-2.6577,-2.6598,-2.6738,-2.6649,-2.6648,-2.6683,-2.6675,-2.6712,-2.6714,-2.6704,-2.6814,-2.6832,-2.6901,-2.6775,-2.7094,-2.7103,-2.7112,-2.7201,-2.722,-2.7237,0,0,0,0,0,-2.648,-2.6498,-2.6648,-2.6576,-2.6594,-2.66,-2.6645,-2.6644,-2.6671,-2.6686,-2.6687,-2.6656,-2.6707,-2.6721,-2.6825,-2.6893,-2.6763,-2.677,-2.71,-2.7107,-2.7114,-2.7211,0,0,0,0,0,0,-2.6484,-2.6498,-2.6651,-2.6656,-2.6534,-2.6592,-2.66,-2.664,-2.668,-2.6682,-2.663,-2.6622,-2.671,-2.672,-2.6732,-2.6891,-2.6752,-2.6759,-2.6764,-2.7106,-2.7111,-2.7117,0,0,0,0,0,0,-2.6488,-2.6503,-2.6654,-2.6602,-2.6601,-2.6584,-2.6592,-2.6678,-2.6681,-2.6621,-2.6616,-2.6626,-2.6693,-2.672,-2.6729,-2.6864,-2.6744,-2.6751,-2.6756,-2.6759,-2.711,-2.7115,0,0,0,0,0,0,-2.6494,-2.6507,-2.66,-2.66,-2.6598,-2.6653,-2.666,-2.6755,-2.6635,-2.662,-2.6624,-2.6619,-2.6695,-2.6703,-2.6728,-2.6859,-2.6863,-2.6745,-2.6749,-2.6752,-2.6754,0,0,0,0,0,0,0,-2.6499,-2.6418,-2.6622,-2.6598,-2.6596,-2.6702,-2.6703,-2.6704,-2.6634,-2.6629,-2.6625,-2.6621,-2.6706,-2.6713,-2.6721,-2.6855,0,0,-2.6744,-2.6747,0,0,0,0,0,0,0,0,-2.6412,-2.6416,-2.6622,-2.6623,-2.6624,-2.6702,-2.6703,-2.6704,-2.6633,-2.6629,-2.6626,-2.6623,-2.6708,-2.6714,-2.672,0,0,0,0,0,0,0,0,0,0,0,0,0,0,0,-2.6622,-2.6623,0,-2.6702,-2.6703,-2.6704,-2.6632,-2.663,-2.6627,-2.6624,-2.671,-2.6715,-2.672,0,0,0,0,0,0,0,0,0,0,0,0,0,0,0,0,0,0,0,0,0,0,0,0,0,0,0,0,0,0,0,0,0,0,0,0,0,0,0,0,0,0,0,0,0,0,0,0,0,0,0,0,0,0,0,0,0,0,0,0,0,0,0,0,0,0,0,0,0]}],[{"header":{"parameterUnit":"kt","parameterCategory":2,"dx":1,"dy":1,"la1":30.253999710083008,"la2":30.299108505249023,"lo1":-89.0895004272461,"lo2":-89.04439544677734,"nx":28,"ny":28,"refTime":"2022-10-15T21:00:00:Z","depth":0,"parameterNumber":2,"parameterNumberName":"V-component_of_WINDS"},"data":[2.9845,3.0001,2.9978,3.0145,3.0152,3.0262,3.0293,3.0332,3.0356,3.0483,3.0552,3.0543,3.0556,3.0632,3.0704,3.0698,3.0731,3.0805,3.0785,3.0479,3.0435,3.0393,3.0354,3.0812,3.0813,3.1105,3.1108,3.111,2.9627,2.9637,2.9718,2.9781,2.985,2.9766,2.9808,2.9871,2.9971,3.0001,3.0067,3.0176,3.0258,3.0246,3.0321,3.0392,3.0356,3.0414,3.0408,3.0412,3.0084,3.0044,3.0443,3.0442,3.0442,3.0442,3.0442,3.0442,2.9224,2.9318,2.9342,2.9429,2.9453,2.9495,2.958,2.9566,2.9644,2.972,2.9674,2.9785,2.981,2.9886,2.9905,2.999,2.992,2.9976,2.999,3.0005,3.0026,2.961,3.0001,3.0,2.9999,2.9998,2.9997,0,2.8921,2.8896,2.897,2.9039,2.9101,2.9151,2.9192,2.9244,2.9176,2.9243,2.9337,2.9387,2.9485,2.957,2.9633,2.964,2.9557,2.9545,2.9583,2.9608,2.9623,2.9618,2.9086,2.9534,2.9529,2.9527,2.9524,2.9523,2.8514,2.8625,2.8636,2.8692,2.8708,2.8799,2.8847,2.8779,2.8834,2.8873,2.8959,2.9043,2.9106,2.926,2.9239,2.9312,2.9272,2.9446,2.9282,2.9302,2.9275,2.927,2.9281,2.9479,2.9485,2.9489,2.9493,0,2.8287,2.8244,2.8408,2.8406,2.8409,2.853,2.8527,2.8617,2.8591,2.8712,2.8735,2.8696,2.8788,2.8738,2.8833,2.8805,2.9003,2.8961,2.8995,2.8984,2.9136,2.9123,2.9634,2.9698,2.9222,2.9227,2.9231,0,2.7921,2.807,2.7998,2.8095,2.8258,2.8183,2.8346,2.8339,2.8357,2.845,2.8347,2.8437,2.8358,2.8442,2.8399,2.8551,2.8568,2.8556,2.8543,2.8565,2.8567,2.8592,2.8571,2.8507,2.8504,2.8502,2.85,0,2.757,2.7704,2.7861,2.7885,2.7896,2.7971,2.7979,2.7997,2.8045,2.8098,2.8128,2.8195,2.8232,2.8286,2.8231,2.8121,2.8415,2.8253,2.8402,2.8404,2.8469,2.8466,2.8932,2.8497,2.8496,2.8495,2.8494,0,2.7268,2.7324,2.7558,2.7564,2.7602,2.7705,2.7766,2.7842,2.7869,2.7848,2.7889,2.7813,2.794,2.7784,2.7959,2.7832,2.7875,2.7874,2.7883,2.7891,2.7717,2.7988,2.8436,2.8481,2.79,2.7895,2.7891,0,2.6878,2.7102,2.7038,2.7262,2.7358,2.7235,2.7348,2.7373,2.7355,2.7432,2.7411,2.75,2.7372,2.7393,2.7486,2.7468,2.7632,2.7444,2.7558,2.7563,2.7556,2.7968,2.8047,2.8343,2.7827,2.7833,2.7838,0,2.657,2.658,2.6625,2.6647,2.6668,2.6747,2.6877,2.6948,2.7004,2.7042,2.7149,2.7272,2.7181,2.7216,2.716,2.726,2.7519,2.7148,2.7147,2.7218,2.7789,2.7864,2.7915,2.7459,2.7467,2.7473,2.7787,0,2.6125,2.6229,2.6346,2.6399,2.6451,2.6587,2.6532,2.6594,2.6535,2.6511,2.6666,2.6671,2.6743,2.6785,2.6727,2.6972,2.6922,2.6824,2.6667,2.6937,2.7039,2.7081,2.6519,2.6514,2.651,2.6507,0,0,2.5763,2.591,2.5835,2.5957,2.5996,2.5864,2.6015,2.6037,2.6086,2.6117,2.6028,2.6203,2.6211,2.6405,2.6485,2.6513,2.6552,2.6459,2.6808,2.6842,2.6874,2.6984,2.7028,2.6499,2.6498,2.6496,2.6495,0,2.5588,2.5599,2.5748,2.5768,2.5795,2.5761,2.5798,2.58,2.5791,2.5941,2.5829,2.5915,2.6056,2.6079,2.6109,2.6434,2.6344,2.646,2.6654,2.6768,2.6808,2.6842,2.6959,2.7002,2.6485,2.6485,2.6486,0,2.5274,2.5276,2.5342,2.5424,2.5439,2.554,2.5362,2.5475,2.5549,2.5396,2.5547,2.5543,2.5568,2.5758,2.5841,2.5763,2.6159,2.6023,2.6048,2.6055,2.6163,2.621,2.6253,2.5695,2.5693,2.5691,0,0,2.5131,2.5226,2.5205,2.5382,2.54,2.5351,2.5398,2.5343,2.5369,2.538,2.5371,2.5399,2.5479,2.5534,2.5607,2.5823,2.5822,2.5928,2.5965,2.5996,2.6021,2.6136,2.6183,2.5681,2.5681,2.5681,0,0,2.5061,2.5043,2.4979,2.5177,2.5206,2.5195,2.5305,2.5225,2.5284,2.5262,2.5174,2.5177,2.5353,2.5352,2.5232,2.555,2.5395,2.5423,2.5544,2.559,2.5626,2.5623,2.5049,0,0,0,0,0,2.4853,2.5045,2.4987,2.5012,2.5113,2.5228,2.524,2.5172,2.5064,2.5154,2.5133,2.5033,2.5269,2.5161,2.5187,2.5321,2.5559,2.5581,2.5601,2.5807,2.5856,2.5898,0,0,0,0,0,0,2.4862,2.4892,2.4981,2.498,2.5002,2.522,2.5023,2.501,2.5053,2.5032,2.504,2.5033,2.4976,2.5143,2.5167,2.5297,2.5041,2.5567,2.5586,2.5602,2.5824,2.5864,2.5899,0,0,0,0,0,2.4868,2.4893,2.5074,2.4977,2.4996,2.4951,2.5015,2.5003,2.5035,2.5003,2.4992,2.4979,2.4982,2.4997,2.5157,2.5287,2.5024,2.5033,2.5579,2.5594,2.5607,2.5844,0,0,0,0,0,0,2.4873,2.4882,2.5076,2.5079,2.4898,2.4938,2.4941,2.4997,2.5001,2.4993,2.4936,2.492,2.4988,2.4999,2.5012,2.5288,2.501,2.5019,2.5025,2.559,2.5602,2.5612,0,0,0,0,0,0,2.4868,2.4886,2.5078,2.4982,2.4974,2.4926,2.4929,2.5054,2.5003,2.4934,2.492,2.4929,2.4969,2.5001,2.501,2.5208,2.4999,2.5008,2.5014,2.5018,2.56,2.5609,0,0,0,0,0,0,2.4874,2.4889,2.4981,2.4975,2.4967,2.4998,2.5034,2.5142,2.4922,2.4936,2.49,2.489,2.4975,2.4982,2.5011,2.5205,2.5207,2.4999,2.5005,2.501,2.5013,0,0,0,0,0,0,0,2.4879,2.4795,2.5057,2.4969,2.4961,2.511,2.5111,2.5111,2.492,2.4911,2.4903,2.4895,2.4948,2.4957,2.4967,2.5203,0,0,2.4998,2.5003,0,0,0,0,0,0,0,0,2.4787,2.4793,2.5057,2.5058,2.5058,2.511,2.5111,2.5111,2.4919,2.4912,2.4905,2.4898,2.495,2.4958,2.4966,0,0,0,0,0,0,0,0,0,0,0,0,0,0,0,2.5057,2.5058,0,2.511,2.511,2.5111,2.4918,2.4912,2.4906,2.4901,2.4952,2.4959,2.4966,0,0,0,0,0,0,0,0,0,0,0,0,0,0,0,0,0,0,0,0,0,0,0,0,0,0,0,0,0,0,0,0,0,0,0,0,0,0,0,0,0,0,0,0,0,0,0,0,0,0,0,0,0,0,0,0,0,0,0,0,0,0,0,0,0,0,0,0,0]}]]]